| time (UTC) | temp F | wind direction | speed knots | gust knots | rain 1hr in | rain 24hr in | rain mn in | humidity % | barometer mb |
| 20260507065149 | 62 | 189 | 3.5 | 5.2 | 0.00 | 0.00 | 0.00 | 41 | 1013.2 |
| 20260507064646 | 62 | 132 | 3.5 | 5.2 | 0.00 | 0.00 | 0.00 | 41 | 1013.3 |
| 20260507064144 | 61 | 180 | 2.6 | 2.6 | 0.00 | 0.00 | 0.00 | 45 | 1013.3 |
| 20260507063642 | 60 | 177 | 2.6 | 5.2 | 0.00 | 0.00 | 0.00 | 47 | 1013.3 |
| 20260507063138 | 61 | 149 | 0.0 | 0.0 | 0.00 | 0.00 | 0.00 | 48 | 1013.5 |
| 20260507062635 | 63 | 148 | 0.9 | 0.9 | 0.00 | 0.00 | 0.00 | 46 | 1013.3 |
| 20260507062133 | 64 | 219 | 0.9 | 1.7 | 0.00 | 0.00 | 0.00 | 41 | 1013.4 |
| 20260507061631 | 64 | 189 | 1.7 | 1.7 | 0.00 | 0.00 | 0.00 | 40 | 1013.4 |
| 20260507061128 | 63 | 147 | 0.0 | 0.9 | 0.00 | 0.00 | 0.00 | 43 | 1013.4 |
| 20260507060626 | 64 | 173 | 0.9 | 1.7 | 0.00 | 0.00 | 0.00 | 41 | 1013.1 |
| 20260507060122 | 64 | 326 | 5.2 | 7.0 | 0.00 | 0.00 | 0.00 | 40 | 1013.4 |
| 20260507055618 | 63 | 166 | 0.9 | 0.9 | 0.00 | 0.00 | 0.00 | 43 | 1013.4 |
| 20260507055114 | 63 | 142 | 0.0 | 0.0 | 0.00 | 0.00 | 0.00 | 43 | 1013.2 |
| 20260507054610 | 64 | 155 | 0.0 | 0.0 | 0.00 | 0.00 | 0.00 | 42 | 1013.2 |
| 20260507054107 | 64 | 159 | 0.9 | 0.9 | 0.00 | 0.00 | 0.00 | 41 | 1013.0 |
| 20260507053605 | 64 | 218 | 1.7 | 2.6 | 0.00 | 0.00 | 0.00 | 41 | 1013.4 |
| 20260507053104 | 63 | 271 | 3.5 | 5.2 | 0.00 | 0.00 | 0.00 | 43 | 1013.3 |
| 20260507052601 | 63 | 241 | 2.6 | 2.6 | 0.00 | 0.00 | 0.00 | 44 | 1013.1 |
| 20260507052058 | 63 | 140 | 1.7 | 1.7 | 0.00 | 0.00 | 0.00 | 42 | 1013.1 |
| 20260507051555 | 64 | 200 | 0.9 | 0.9 | 0.00 | 0.00 | 0.00 | 42 | 1013.2 |
| 20260507051052 | 63 | 321 | 1.7 | 2.6 | 0.00 | 0.00 | 0.00 | 42 | 1013.1 |
| 20260507050549 | 63 | 131 | 0.0 | 0.0 | 0.00 | 0.00 | 0.00 | 43 | 1012.9 |
| 20260507050045 | 63 | 256 | 2.6 | 2.6 | 0.00 | 0.00 | 0.00 | 45 | 1013.0 |
| 20260507045542 | 64 | 155 | 0.0 | 0.9 | 0.00 | 0.00 | 0.00 | 43 | 1013.1 |
| 20260507045039 | 64 | 172 | 3.5 | 3.5 | 0.00 | 0.00 | 0.00 | 42 | 1013.1 |
| 20260507044536 | 65 | 173 | 3.5 | 3.5 | 0.00 | 0.00 | 0.00 | 42 | 1013.0 |
| 20260507044033 | 66 | 148 | 2.6 | 3.5 | 0.00 | 0.00 | 0.00 | 39 | 1012.9 |
| 20260507043528 | 65 | 214 | 2.6 | 2.6 | 0.00 | 0.00 | 0.00 | 40 | 1013.2 |
| 20260507043026 | 66 | 185 | 0.9 | 1.7 | 0.00 | 0.00 | 0.00 | 40 | 1013.0 |
| 20260507042522 | 66 | 210 | 0.9 | 1.7 | 0.00 | 0.00 | 0.00 | 40 | 1013.0 |
| 20260507042017 | 66 | 224 | 5.2 | 6.1 | 0.00 | 0.00 | 0.00 | 39 | 1013.2 |
| 20260507041515 | 65 | 157 | 1.7 | 1.7 | 0.00 | 0.00 | 0.00 | 41 | 1013.2 |
| 20260507041011 | 65 | 198 | 0.9 | 1.7 | 0.00 | 0.00 | 0.00 | 42 | 1013.2 |
| 20260507040508 | 66 | 141 | 0.0 | 0.0 | 0.00 | 0.00 | 0.00 | 42 | 1013.1 |
| 20260507040004 | 67 | 209 | 2.6 | 3.5 | 0.00 | 0.00 | 0.00 | 39 | 1013.1 |
| 20260507035500 | 67 | 249 | 2.6 | 3.5 | 0.00 | 0.00 | 0.00 | 39 | 1012.9 |
| 20260507034956 | 67 | 218 | 2.6 | 3.5 | 0.00 | 0.00 | 0.00 | 38 | 1012.9 |
| 20260507034453 | 67 | 184 | 0.9 | 1.7 | 0.00 | 0.00 | 0.00 | 40 | 1012.7 |
| 20260507033952 | 66 | 204 | 2.6 | 2.6 | 0.00 | 0.00 | 0.00 | 40 | 1012.4 |
| 20260507033449 | 66 | 142 | 0.0 | 0.0 | 0.00 | 0.00 | 0.00 | 42 | 1012.6 |
| 20260507032946 | 66 | 147 | 1.7 | 1.7 | 0.00 | 0.00 | 0.00 | 42 | 1012.3 |
| 20260507032443 | 67 | 152 | 0.9 | 0.9 | 0.00 | 0.00 | 0.00 | 41 | 1012.3 |
| 20260507031939 | 67 | 164 | 1.7 | 1.7 | 0.00 | 0.00 | 0.00 | 40 | 1012.4 |
| 20260507031435 | 68 | 182 | 1.7 | 2.6 | 0.00 | 0.00 | 0.00 | 39 | 1012.4 |
| 20260507030932 | 68 | 157 | 0.9 | 0.9 | 0.00 | 0.00 | 0.00 | 38 | 1012.3 |
| 20260507030430 | 68 | 147 | 2.6 | 3.5 | 0.00 | 0.00 | 0.00 | 39 | 1012.3 |
| 20260507025927 | 69 | 175 | 1.7 | 1.7 | 0.00 | 0.00 | 0.00 | 36 | 1012.1 |
| 20260507025424 | 69 | 150 | 1.7 | 1.7 | 0.00 | 0.00 | 0.00 | 37 | 1012.3 |
| 20260507024922 | 70 | 237 | 2.6 | 2.6 | 0.00 | 0.00 | 0.00 | 36 | 1012.3 |
| 20260507024419 | 70 | 187 | 1.7 | 1.7 | 0.00 | 0.00 | 0.00 | 36 | 1012.3 |
| 20260507023914 | 70 | 189 | 1.7 | 1.7 | 0.00 | 0.00 | 0.00 | 35 | 1012.0 |
| 20260507023412 | 71 | 267 | 7.8 | 9.6 | 0.00 | 0.00 | 0.00 | 35 | 1012.4 |
| 20260507022909 | 71 | 203 | 3.5 | 3.5 | 0.00 | 0.00 | 0.00 | 35 | 1011.9 |
| 20260507022405 | 71 | 254 | 6.1 | 8.7 | 0.00 | 0.00 | 0.00 | 34 | 1011.8 |
| 20260507021901 | 71 | 241 | 3.5 | 3.5 | 0.00 | 0.00 | 0.00 | 34 | 1012.2 |
| 20260507021356 | 72 | 271 | 6.1 | 7.8 | 0.00 | 0.00 | 0.00 | 34 | 1012.2 |
| 20260507020855 | 72 | 265 | 6.1 | 7.0 | 0.00 | 0.00 | 0.00 | 34 | 1012.1 |
| 20260507020351 | 72 | 265 | 5.2 | 6.1 | 0.00 | 0.00 | 0.00 | 33 | 1012.0 |
| 20260507015848 | 73 | 286 | 5.2 | 7.8 | 0.00 | 0.00 | 0.00 | 33 | 1012.0 |
| 20260507015346 | 73 | 242 | 6.1 | 7.0 | 0.00 | 0.00 | 0.00 | 33 | 1012.0 |
| 20260507014843 | 73 | 309 | 5.2 | 7.0 | 0.00 | 0.00 | 0.00 | 33 | 1011.9 |
| 20260507014339 | 73 | 271 | 5.2 | 7.8 | 0.00 | 0.00 | 0.00 | 32 | 1011.7 |
| 20260507013836 | 74 | 295 | 8.7 | 9.6 | 0.00 | 0.00 | 0.00 | 32 | 1011.4 |
| 20260507013333 | 74 | 187 | 0.9 | 0.9 | 0.00 | 0.00 | 0.00 | 33 | 1011.7 |
| 20260507012831 | 75 | 199 | 2.6 | 2.6 | 0.00 | 0.00 | 0.00 | 33 | 1011.7 |
| 20260507012326 | 74 | 204 | 1.7 | 1.7 | 0.00 | 0.00 | 0.00 | 34 | 1011.7 |
| 20260507011823 | 74 | 263 | 1.7 | 1.7 | 0.00 | 0.00 | 0.00 | 34 | 1011.9 |
| 20260507011320 | 74 | 237 | 3.5 | 5.2 | 0.00 | 0.00 | 0.00 | 36 | 1011.9 |
| 20260507010820 | 74 | 227 | 2.6 | 3.5 | 0.00 | 0.00 | 0.00 | 34 | 1011.8 |
| 20260507010315 | 74 | 330 | 5.2 | 7.0 | 0.00 | 0.00 | 0.00 | 34 | 1011.9 |
| 20260507005813 | 74 | 309 | 3.5 | 6.1 | 0.00 | 0.00 | 0.00 | 33 | 1011.8 |
| 20260507005310 | 74 | 258 | 5.2 | 7.8 | 0.00 | 0.00 | 0.00 | 34 | 1012.0 |
| 20260507004807 | 74 | 325 | 4.3 | 6.1 | 0.00 | 0.00 | 0.00 | 35 | 1011.7 |
| 20260507004304 | 74 | 249 | 4.3 | 6.1 | 0.00 | 0.00 | 0.00 | 37 | 1011.8 |
| 20260507003800 | 74 | 311 | 11.3 | 13.9 | 0.00 | 0.00 | 0.00 | 36 | 1011.7 |
| 20260507003256 | 75 | 283 | 6.1 | 8.7 | 0.00 | 0.00 | 0.00 | 36 | 1011.9 |
| 20260507002752 | 75 | 275 | 4.3 | 5.2 | 0.00 | 0.00 | 0.00 | 37 | 1011.6 |
| 20260507002248 | 75 | 302 | 5.2 | 7.0 | 0.00 | 0.00 | 0.00 | 37 | 1011.7 |
| 20260507001745 | 75 | 226 | 7.8 | 9.6 | 0.00 | 0.00 | 0.00 | 36 | 1011.7 |
| 20260507001242 | 75 | 254 | 4.3 | 7.0 | 0.00 | 0.00 | 0.00 | 38 | 1011.6 |
| 20260507000738 | 75 | 256 | 3.5 | 5.2 | 0.00 | 0.00 | 0.00 | 39 | 1011.6 |
| 20260507000234 | 75 | 260 | 7.8 | 9.6 | 0.00 | 0.00 | 0.00 | 41 | 1011.6 |
| 20260506235731 | 76 | 234 | 3.5 | 3.5 | 0.00 | 0.00 | 0.00 | 40 | 1011.3 |
| 20260506235227 | 75 | 237 | 5.2 | 7.0 | 0.00 | 0.00 | 0.00 | 41 | 1011.4 |
| 20260506234724 | 75 | 262 | 7.8 | 8.7 | 0.00 | 0.00 | 0.00 | 41 | 1011.3 |
| 20260506234221 | 74 | 251 | 8.7 | 12.2 | 0.00 | 0.00 | 0.00 | 42 | 1011.3 |
| 20260506233719 | 74 | 252 | 6.1 | 8.7 | 0.00 | 0.00 | 0.00 | 42 | 1011.9 |
| 20260506233215 | 75 | 233 | 10.4 | 12.2 | 0.00 | 0.00 | 0.00 | 40 | 1011.6 |
| 20260506232711 | 76 | 323 | 5.2 | 7.0 | 0.00 | 0.00 | 0.00 | 40 | 1011.8 |
| 20260506232206 | 76 | 285 | 8.7 | 12.2 | 0.00 | 0.00 | 0.00 | 38 | 1011.7 |
| 20260506231704 | 76 | 238 | 6.1 | 7.8 | 0.00 | 0.00 | 0.00 | 38 | 1011.6 |
| 20260506231203 | 75 | 275 | 7.0 | 8.7 | 0.00 | 0.00 | 0.00 | 38 | 1011.4 |
| 20260506230658 | 75 | 259 | 3.5 | 3.5 | 0.00 | 0.00 | 0.00 | 38 | 1011.4 |
| 20260506230155 | 76 | 293 | 10.4 | 12.2 | 0.00 | 0.00 | 0.00 | 36 | 1011.7 |
| 20260506225652 | 77 | 304 | 8.7 | 9.6 | 0.00 | 0.00 | 0.00 | 35 | 1011.7 |
| 20260506225149 | 77 | 14 | 1.7 | 2.6 | 0.00 | 0.00 | 0.00 | 35 | 1011.4 |
| 20260506224645 | 77 | 242 | 3.5 | 3.5 | 0.00 | 0.00 | 0.00 | 36 | 1011.7 |
| 20260506224142 | 77 | 227 | 6.1 | 7.0 | 0.00 | 0.00 | 0.00 | 34 | 1011.8 |
| 20260506223639 | 77 | 228 | 6.1 | 7.8 | 0.00 | 0.00 | 0.00 | 32 | 1011.6 |
| 20260506223134 | 77 | 228 | 5.2 | 6.1 | 0.00 | 0.00 | 0.00 | 33 | 1011.7 |
| 20260506222632 | 78 | 291 | 7.0 | 7.8 | 0.00 | 0.00 | 0.00 | 32 | 1011.7 |
| 20260506222128 | 79 | 272 | 10.4 | 13.0 | 0.00 | 0.00 | 0.00 | 30 | 1011.7 |
| 20260506221626 | 79 | 292 | 6.1 | 7.8 | 0.00 | 0.00 | 0.00 | 29 | 1011.9 |
| 20260506221123 | 78 | 263 | 7.0 | 9.6 | 0.00 | 0.00 | 0.00 | 29 | 1011.8 |
| 20260506220620 | 79 | 272 | 7.0 | 11.3 | 0.00 | 0.00 | 0.00 | 28 | 1011.8 |
| 20260506220115 | 80 | 214 | 6.1 | 8.7 | 0.00 | 0.00 | 0.00 | 28 | 1012.0 |
| 20260506215612 | 79 | 255 | 4.3 | 5.2 | 0.00 | 0.00 | 0.00 | 29 | 1011.7 |
| 20260506215107 | 78 | 152 | 7.0 | 8.7 | 0.00 | 0.00 | 0.00 | 29 | 1011.9 |
| 20260506214605 | 78 | 255 | 5.2 | 7.0 | 0.00 | 0.00 | 0.00 | 28 | 1011.9 |
| 20260506214102 | 79 | 277 | 8.7 | 12.2 | 0.00 | 0.00 | 0.00 | 28 | 1011.9 |
| 20260506213600 | 80 | 150 | 7.8 | 11.3 | 0.00 | 0.00 | 0.00 | 33 | 1011.4 |
| 20260506213057 | 78 | 173 | 0.9 | 1.7 | 0.00 | 0.00 | 0.00 | 37 | 1011.8 |
| 20260506212554 | 79 | 194 | 2.6 | 5.2 | 0.00 | 0.00 | 0.00 | 36 | 1011.9 |
| 20260506212048 | 79 | 147 | 0.9 | 0.9 | 0.00 | 0.00 | 0.00 | 37 | 1012.1 |
| 20260506211545 | 78 | 190 | 1.7 | 1.7 | 0.00 | 0.00 | 0.00 | 35 | 1012.0 |
| 20260506211042 | 76 | 172 | 7.8 | 11.3 | 0.00 | 0.00 | 0.00 | 37 | 1012.0 |
| 20260506210538 | 77 | 147 | 2.6 | 3.5 | 0.00 | 0.00 | 0.00 | 39 | 1012.1 |
| 20260506210035 | 77 | 181 | 7.8 | 12.2 | 0.00 | 0.00 | 0.00 | 38 | 1011.8 |
| 20260506205532 | 77 | 160 | 6.1 | 7.8 | 0.00 | 0.00 | 0.00 | 37 | 1012.0 |
| 20260506205027 | 77 | 192 | 10.4 | 13.0 | 0.00 | 0.00 | 0.00 | 38 | 1011.9 |
| 20260506204525 | 77 | 159 | 5.2 | 6.1 | 0.00 | 0.00 | 0.00 | 38 | 1011.9 |
| 20260506204022 | 75 | 150 | 7.0 | 7.8 | 0.00 | 0.00 | 0.00 | 39 | 1012.1 |
| 20260506203520 | 76 | 170 | 7.8 | 9.6 | 0.00 | 0.00 | 0.00 | 39 | 1012.0 |
| 20260506203016 | 76 | 205 | 7.0 | 7.8 | 0.00 | 0.00 | 0.00 | 38 | 1012.2 |
| 20260506202514 | 76 | 159 | 1.7 | 2.6 | 0.00 | 0.00 | 0.00 | 41 | 1012.0 |
| 20260506202010 | 75 | 194 | 7.8 | 9.6 | 0.00 | 0.00 | 0.00 | 38 | 1012.3 |
| 20260506201508 | 75 | 180 | 5.2 | 7.8 | 0.00 | 0.00 | 0.00 | 39 | 1012.4 |
| 20260506200958 | 74 | 189 | 7.8 | 9.6 | 0.00 | 0.00 | 0.00 | 40 | 1012.3 |
| 20260506200454 | 74 | 200 | 7.0 | 8.7 | 0.00 | 0.00 | 0.00 | 39 | 1012.1 |
| 20260506195945 | 74 | 187 | 7.8 | 8.7 | 0.00 | 0.00 | 0.00 | 38 | 1012.4 |
| 20260506195442 | 75 | 179 | 5.2 | 7.0 | 0.00 | 0.00 | 0.00 | 40 | 1012.4 |
| 20260506194939 | 75 | 165 | 5.2 | 8.7 | 0.00 | 0.00 | 0.00 | 39 | 1012.6 |
| 20260506194437 | 75 | 150 | 5.2 | 7.0 | 0.00 | 0.00 | 0.00 | 40 | 1012.6 |
| 20260506193933 | 75 | 168 | 5.2 | 7.0 | 0.00 | 0.00 | 0.00 | 40 | 1012.6 |
| 20260506193430 | 75 | 163 | 4.3 | 7.0 | 0.00 | 0.00 | 0.00 | 39 | 1012.7 |
| 20260506192926 | 74 | 169 | 4.3 | 6.1 | 0.00 | 0.00 | 0.00 | 40 | 1012.6 |
| 20260506192423 | 73 | 165 | 5.2 | 7.0 | 0.00 | 0.00 | 0.00 | 40 | 1012.9 |
| 20260506191915 | 74 | 148 | 5.2 | 7.8 | 0.00 | 0.00 | 0.00 | 41 | 1013.1 |
| 20260506191411 | 73 | 179 | 4.3 | 6.1 | 0.00 | 0.00 | 0.00 | 42 | 1012.9 |
| 20260506190908 | 74 | 132 | 2.6 | 2.6 | 0.00 | 0.00 | 0.00 | 40 | 1013.2 |
| 20260506190404 | 73 | 154 | 7.0 | 8.7 | 0.00 | 0.00 | 0.00 | 41 | 1013.2 |
| 20260506185901 | 73 | 170 | 0.9 | 1.7 | 0.00 | 0.00 | 0.00 | 42 | 1013.3 |
| 20260506185358 | 73 | 174 | 1.7 | 3.5 | 0.00 | 0.00 | 0.00 | 41 | 1013.3 |
| 20260506184855 | 72 | 143 | 2.6 | 2.6 | 0.00 | 0.00 | 0.00 | 41 | 1013.6 |
| 20260506184352 | 73 | 189 | 5.2 | 6.1 | 0.00 | 0.00 | 0.00 | 42 | 1013.6 |
| 20260506183850 | 72 | 184 | 3.5 | 3.5 | 0.00 | 0.00 | 0.00 | 42 | 1013.6 |
| 20260506183344 | 73 | 192 | 5.2 | 7.8 | 0.00 | 0.00 | 0.00 | 42 | 1013.7 |
| 20260506182842 | 72 | 219 | 5.2 | 8.7 | 0.00 | 0.00 | 0.00 | 42 | 1013.6 |
| 20260506182339 | 72 | 190 | 6.1 | 7.0 | 0.00 | 0.00 | 0.00 | 41 | 1013.6 |
| 20260506181837 | 70 | 183 | 6.1 | 7.0 | 0.00 | 0.00 | 0.00 | 42 | 1013.6 |
| 20260506181335 | 71 | 167 | 5.2 | 7.0 | 0.00 | 0.00 | 0.00 | 44 | 1013.8 |
| 20260506180831 | 70 | 154 | 9.6 | 9.6 | 0.00 | 0.00 | 0.00 | 43 | 1013.7 |
| 20260506180327 | 70 | 194 | 4.3 | 8.7 | 0.00 | 0.00 | 0.00 | 44 | 1013.6 |
| 20260506175824 | 71 | 132 | 2.6 | 5.2 | 0.00 | 0.00 | 0.00 | 42 | 1013.9 |
| 20260506175321 | 70 | 239 | 3.5 | 3.5 | 0.00 | 0.00 | 0.00 | 44 | 1013.8 |
| 20260506174818 | 69 | 193 | 5.2 | 8.7 | 0.00 | 0.00 | 0.00 | 44 | 1013.8 |
| 20260506174315 | 69 | 186 | 4.3 | 7.0 | 0.00 | 0.00 | 0.00 | 44 | 1013.9 |
| 20260506173813 | 68 | 166 | 1.7 | 2.6 | 0.00 | 0.00 | 0.00 | 45 | 1013.8 |
| 20260506173309 | 68 | 178 | 5.2 | 11.3 | 0.00 | 0.00 | 0.00 | 46 | 1013.7 |
| 20260506172807 | 69 | 156 | 2.6 | 3.5 | 0.00 | 0.00 | 0.00 | 47 | 1013.9 |
| 20260506172306 | 68 | 185 | 2.6 | 3.5 | 0.00 | 0.00 | 0.00 | 46 | 1013.7 |
| 20260506171801 | 67 | 160 | 9.6 | 14.8 | 0.00 | 0.00 | 0.00 | 47 | 1013.8 |
| 20260506171257 | 67 | 153 | 3.5 | 6.1 | 0.00 | 0.00 | 0.00 | 48 | 1013.8 |
| 20260506170755 | 66 | 247 | 5.2 | 7.0 | 0.00 | 0.00 | 0.00 | 49 | 1014.2 |
| 20260506170251 | 66 | 172 | 2.6 | 3.5 | 0.00 | 0.00 | 0.00 | 53 | 1013.8 |
| 20260506165750 | 65 | 103 | 1.7 | 1.7 | 0.00 | 0.00 | 0.00 | 54 | 1013.9 |
| 20260506165247 | 65 | 156 | 1.7 | 2.6 | 0.00 | 0.00 | 0.00 | 57 | 1014.0 |
| 20260506164744 | 64 | 212 | 2.6 | 5.2 | 0.00 | 0.00 | 0.00 | 56 | 1014.0 |
| 20260506164241 | 64 | 181 | 2.6 | 2.6 | 0.00 | 0.00 | 0.00 | 55 | 1014.0 |
| 20260506163738 | 64 | 157 | 1.7 | 2.6 | 0.00 | 0.00 | 0.00 | 54 | 1014.3 |
| 20260506163232 | 64 | 151 | 2.6 | 2.6 | 0.00 | 0.00 | 0.00 | 53 | 1014.2 |
| 20260506162729 | 63 | 134 | 0.0 | 0.9 | 0.00 | 0.00 | 0.00 | 57 | 1014.3 |
| 20260506162227 | 62 | 131 | 0.9 | 1.7 | 0.00 | 0.00 | 0.00 | 61 | 1014.2 |
| 20260506161724 | 61 | 156 | 1.7 | 2.6 | 0.00 | 0.00 | 0.00 | 62 | 1014.0 |
| 20260506161221 | 59 | 135 | 1.7 | 1.7 | 0.00 | 0.00 | 0.00 | 65 | 1014.2 |
| 20260506160718 | 58 | 158 | 0.9 | 0.9 | 0.00 | 0.00 | 0.00 | 66 | 1014.2 |
| 20260506160215 | 57 | 154 | 2.6 | 2.6 | 0.00 | 0.00 | 0.00 | 66 | 1014.2 |
| 20260506155713 | 56 | 200 | 2.6 | 3.5 | 0.00 | 0.00 | 0.00 | 69 | 1014.4 |
| 20260506155210 | 55 | 145 | 2.6 | 3.5 | 0.00 | 0.00 | 0.00 | 69 | 1014.5 |
| 20260506153312 | 54 | 146 | 0.9 | 0.9 | 0.00 | 0.00 | 0.00 | 69 | 1014.4 |
| 20260506152809 | 54 | 142 | 0.9 | 0.9 | 0.00 | 0.00 | 0.00 | 69 | 1014.5 |
| 20260506152306 | 54 | 130 | 0.9 | 0.9 | 0.00 | 0.00 | 0.00 | 68 | 1014.4 |
| 20260506151805 | 53 | 144 | 0.0 | 0.0 | 0.00 | 0.00 | 0.00 | 71 | 1014.5 |
| 20260506151301 | 53 | 101 | 0.9 | 0.9 | 0.00 | 0.00 | 0.00 | 69 | 1014.6 |
| 20260506150758 | 52 | 106 | 0.0 | 0.9 | 0.00 | 0.00 | 0.00 | 73 | 1014.5 |
| 20260506150303 | 51 | 112 | 0.0 | 0.0 | 0.00 | 0.00 | 0.00 | 74 | 1014.7 |
| 20260506145752 | 51 | 107 | 0.0 | 0.9 | 0.00 | 0.00 | 0.00 | 73 | 1014.3 |
| 20260506145248 | 50 | 145 | 0.0 | 0.0 | 0.00 | 0.00 | 0.00 | 75 | 1014.3 |
| 20260506144746 | 50 | 107 | 0.0 | 0.0 | 0.00 | 0.00 | 0.00 | 76 | 1014.4 |
| 20260506144242 | 49 | 110 | 0.0 | 0.9 | 0.00 | 0.00 | 0.00 | 77 | 1014.6 |
| 20260506143740 | 50 | 103 | 0.9 | 0.9 | 0.00 | 0.00 | 0.00 | 76 | 1014.0 |
| 20260506143237 | 49 | 102 | 0.0 | 0.9 | 0.00 | 0.00 | 0.00 | 77 | 1014.4 |
| 20260506142736 | 48 | 102 | 0.0 | 0.0 | 0.00 | 0.00 | 0.00 | 78 | 1014.4 |
| 20260506142233 | 48 | 123 | 0.0 | 0.0 | 0.00 | 0.00 | 0.00 | 80 | 1014.2 |
| 20260506141731 | 47 | 133 | 0.0 | 0.0 | 0.00 | 0.00 | 0.00 | 81 | 1014.3 |
| 20260506141229 | 46 | 133 | 0.0 | 0.0 | 0.00 | 0.00 | 0.00 | 83 | 1014.2 |
| 20260506140727 | 46 | 133 | 0.0 | 0.0 | 0.00 | 0.00 | 0.00 | 83 | 1014.2 |
| 20260506140223 | 45 | 133 | 0.0 | 0.0 | 0.00 | 0.00 | 0.00 | 83 | 1014.3 |
| 20260506135720 | 45 | 132 | 0.0 | 0.0 | 0.00 | 0.00 | 0.00 | 84 | 1013.9 |
| 20260506135216 | 44 | 129 | 0.0 | 0.0 | 0.00 | 0.00 | 0.00 | 85 | 1014.6 |
| 20260506134714 | 44 | 129 | 0.0 | 0.0 | 0.00 | 0.00 | 0.00 | 87 | 1014.4 |
| 20260506134209 | 43 | 100 | 0.0 | 0.0 | 0.00 | 0.00 | 0.00 | 86 | 1014.4 |
| 20260506133707 | 43 | 98 | 0.0 | 0.0 | 0.00 | 0.00 | 0.00 | 88 | 1014.3 |
| 20260506133203 | 42 | 96 | 0.0 | 0.0 | 0.00 | 0.00 | 0.00 | 89 | 1014.4 |
| 20260506132701 | 42 | 101 | 0.0 | 0.0 | 0.00 | 0.00 | 0.00 | 90 | 1014.2 |
| 20260506132157 | 42 | 108 | 0.0 | 0.0 | 0.00 | 0.00 | 0.00 | 91 | 1014.3 |
| 20260506131655 | 41 | 120 | 0.0 | 0.0 | 0.00 | 0.00 | 0.00 | 92 | 1013.9 |
| 20260506131151 | 41 | 126 | 0.0 | 0.0 | 0.00 | 0.00 | 0.00 | 93 | 1014.0 |
| 20260506130648 | 40 | 139 | 0.0 | 0.0 | 0.00 | 0.00 | 0.00 | 94 | 1014.2 |
| 20260506130145 | 39 | 139 | 0.0 | 0.0 | 0.00 | 0.00 | 0.00 | 94 | 1013.9 |
| 20260506125644 | 39 | 140 | 0.0 | 0.0 | 0.00 | 0.00 | 0.00 | 94 | 1013.8 |
| 20260506125141 | 39 | 125 | 0.0 | 0.0 | 0.00 | 0.00 | 0.00 | 95 | 1013.8 |
| 20260506124639 | 39 | 122 | 0.0 | 0.0 | 0.00 | 0.00 | 0.00 | 95 | 1014.2 |
| 20260506124136 | 38 | 122 | 0.0 | 0.0 | 0.00 | 0.00 | 0.00 | 95 | 1013.8 |
| 20260506123634 | 38 | 122 | 0.0 | 0.0 | 0.00 | 0.00 | 0.00 | 95 | 1013.8 |
| 20260506123132 | 38 | 122 | 0.0 | 0.0 | 0.00 | 0.00 | 0.00 | 95 | 1013.7 |
| 20260506122629 | 39 | 121 | 0.0 | 0.0 | 0.00 | 0.00 | 0.00 | 95 | 1013.8 |
| 20260506122126 | 39 | 123 | 0.0 | 0.0 | 0.00 | 0.00 | 0.00 | 95 | 1013.8 |
| 20260506121624 | 39 | 151 | 0.0 | 0.0 | 0.00 | 0.00 | 0.00 | 95 | 1013.7 |
| 20260506121120 | 39 | 152 | 0.0 | 0.0 | 0.00 | 0.00 | 0.00 | 95 | 1013.6 |
| 20260506120618 | 39 | 152 | 0.0 | 0.0 | 0.00 | 0.00 | 0.00 | 95 | 1013.6 |
| 20260506120115 | 39 | 152 | 0.0 | 0.0 | 0.00 | 0.00 | 0.00 | 95 | 1013.6 |
| 20260506115614 | 39 | 152 | 0.0 | 0.0 | 0.00 | 0.00 | 0.00 | 95 | 1013.5 |
| 20260506115112 | 39 | 153 | 0.0 | 0.0 | 0.00 | 0.00 | 0.00 | 95 | 1013.5 |
| 20260506114608 | 39 | 153 | 0.0 | 0.0 | 0.00 | 0.00 | 0.00 | 95 | 1013.5 |
| 20260506114107 | 40 | 153 | 0.0 | 0.0 | 0.00 | 0.00 | 0.00 | 95 | 1013.4 |
| 20260506113604 | 40 | 153 | 0.0 | 0.0 | 0.00 | 0.00 | 0.00 | 95 | 1013.4 |
| 20260506113101 | 39 | 153 | 0.0 | 0.0 | 0.00 | 0.00 | 0.00 | 94 | 1013.5 |
| 20260506112557 | 40 | 154 | 0.0 | 0.0 | 0.00 | 0.00 | 0.00 | 94 | 1013.6 |
| 20260506112055 | 40 | 162 | 0.0 | 0.9 | 0.00 | 0.00 | 0.00 | 94 | 1013.5 |
| 20260506111553 | 40 | 158 | 0.9 | 0.9 | 0.00 | 0.00 | 0.00 | 93 | 1013.5 |
| 20260506111050 | 40 | 148 | 0.0 | 0.0 | 0.00 | 0.00 | 0.00 | 93 | 1013.5 |
| 20260506110548 | 40 | 121 | 0.0 | 0.0 | 0.00 | 0.00 | 0.00 | 93 | 1013.3 |
| 20260506110045 | 40 | 120 | 0.0 | 0.0 | 0.00 | 0.00 | 0.00 | 92 | 1013.2 |
| 20260506105541 | 40 | 121 | 0.0 | 0.0 | 0.00 | 0.00 | 0.00 | 92 | 1013.3 |
| 20260506105038 | 40 | 121 | 0.0 | 0.0 | 0.00 | 0.00 | 0.00 | 92 | 1013.3 |
| 20260506104536 | 41 | 128 | 0.0 | 0.0 | 0.00 | 0.00 | 0.00 | 92 | 1013.2 |
| 20260506104034 | 41 | 151 | 0.0 | 0.0 | 0.00 | 0.00 | 0.00 | 92 | 1013.2 |
| 20260506103531 | 41 | 134 | 0.0 | 0.0 | 0.00 | 0.00 | 0.00 | 91 | 1013.0 |
| 20260506103027 | 41 | 127 | 0.0 | 0.0 | 0.00 | 0.00 | 0.00 | 91 | 1012.7 |
| 20260506102526 | 41 | 126 | 0.0 | 0.0 | 0.00 | 0.00 | 0.00 | 91 | 1013.0 |
| 20260506102023 | 41 | 133 | 0.0 | 0.0 | 0.00 | 0.00 | 0.00 | 91 | 1012.9 |
| 20260506101519 | 41 | 134 | 0.0 | 0.0 | 0.00 | 0.00 | 0.00 | 91 | 1012.9 |
| 20260506101017 | 41 | 132 | 0.0 | 0.0 | 0.00 | 0.00 | 0.00 | 91 | 1012.9 |
| 20260506100515 | 41 | 132 | 0.0 | 0.0 | 0.00 | 0.00 | 0.00 | 91 | 1012.9 |
| 20260506100013 | 41 | 145 | 0.0 | 0.0 | 0.00 | 0.00 | 0.00 | 91 | 1012.6 |
| 20260506095511 | 41 | 142 | 0.0 | 0.0 | 0.00 | 0.00 | 0.00 | 91 | 1012.7 |
| 20260506095007 | 41 | 107 | 0.0 | 0.0 | 0.00 | 0.00 | 0.00 | 91 | 1012.6 |
| 20260506094505 | 42 | 120 | 0.0 | 0.0 | 0.00 | 0.00 | 0.00 | 91 | 1012.7 |
| 20260506094003 | 42 | 123 | 0.0 | 0.0 | 0.00 | 0.00 | 0.00 | 91 | 1012.9 |
| 20260506093501 | 42 | 138 | 0.0 | 0.0 | 0.00 | 0.00 | 0.00 | 90 | 1012.6 |
| 20260506092958 | 42 | 141 | 0.0 | 0.0 | 0.00 | 0.00 | 0.00 | 90 | 1012.7 |
| 20260506092456 | 43 | 142 | 0.0 | 0.0 | 0.00 | 0.00 | 0.00 | 91 | 1012.6 |
| 20260506091952 | 42 | 123 | 0.0 | 0.0 | 0.00 | 0.00 | 0.00 | 91 | 1012.6 |
| 20260506091450 | 43 | 123 | 0.0 | 0.0 | 0.00 | 0.00 | 0.00 | 91 | 1012.6 |
| 20260506090947 | 43 | 133 | 0.0 | 0.0 | 0.00 | 0.00 | 0.00 | 91 | 1012.5 |
| 20260506090445 | 43 | 147 | 0.0 | 0.0 | 0.00 | 0.00 | 0.00 | 91 | 1012.6 |
| 20260506085941 | 43 | 148 | 0.0 | 0.0 | 0.00 | 0.00 | 0.00 | 90 | 1012.6 |
| 20260506085438 | 44 | 149 | 0.0 | 0.0 | 0.00 | 0.00 | 0.00 | 90 | 1012.6 |
| 20260506084934 | 43 | 149 | 0.0 | 0.0 | 0.00 | 0.00 | 0.00 | 89 | 1012.7 |
| 20260506084432 | 43 | 149 | 0.0 | 0.0 | 0.00 | 0.00 | 0.00 | 89 | 1012.4 |
| 20260506083927 | 43 | 137 | 0.0 | 0.0 | 0.00 | 0.00 | 0.00 | 88 | 1012.5 |
| 20260506083425 | 44 | 126 | 0.0 | 0.0 | 0.00 | 0.00 | 0.00 | 88 | 1012.3 |
| 20260506082922 | 44 | 146 | 0.0 | 0.0 | 0.00 | 0.00 | 0.00 | 88 | 1012.5 |
| 20260506082419 | 44 | 129 | 0.0 | 0.0 | 0.00 | 0.00 | 0.00 | 88 | 1012.5 |
| 20260506081914 | 45 | 129 | 0.0 | 0.0 | 0.00 | 0.00 | 0.00 | 88 | 1012.5 |
| 20260506081413 | 45 | 129 | 0.0 | 0.0 | 0.00 | 0.00 | 0.00 | 88 | 1012.5 |
| 20260506080910 | 45 | 126 | 0.0 | 0.0 | 0.00 | 0.00 | 0.00 | 88 | 1012.5 |
| 20260506080407 | 45 | 115 | 0.0 | 0.0 | 0.00 | 0.00 | 0.00 | 88 | 1012.4 |
| 20260506073351 | 47 | 148 | 0.0 | 0.0 | 0.00 | 0.00 | 0.00 | 86 | 1012.1 |
| 20260506072848 | 47 | 149 | 0.0 | 0.0 | 0.00 | 0.00 | 0.00 | 87 | 1012.2 |
| 20260506072345 | 47 | 149 | 0.0 | 0.0 | 0.00 | 0.00 | 0.00 | 86 | 1012.3 |
| 20260506071843 | 47 | 149 | 0.0 | 0.0 | 0.00 | 0.00 | 0.00 | 86 | 1012.3 |
| 20260506071341 | 47 | 118 | 0.0 | 0.0 | 0.00 | 0.00 | 0.00 | 86 | 1012.1 |
| 20260506070837 | 47 | 118 | 0.0 | 0.0 | 0.00 | 0.00 | 0.00 | 86 | 1012.1 |
| 20260506070335 | 48 | 117 | 0.0 | 0.0 | 0.00 | 0.00 | 0.00 | 84 | 1012.1 |